Retour au catalogue

FENGYUN 1C DEB

ActifSSO
NORAD 30927·DEBRIS·🇨🇳 China

Lancé May 10, 1999 depuis Taiyuan Satellite Launch Center

Loading…

Prochains Passages (prochaines 24 heures)

TLE

FraisSource: Space-Track

Époque: Sep 14, 2026, 03:41 UTC

1 30927U 99025AZR 26257.15360385  .00001696  00000-0  94129-3 0  9999
2 30927  99.1684 327.8871 0095207 315.7257  43.6324 14.10337133995640

Suivez FENGYUN 1C DEB en temps réel avec AllMySat

Download on the App Store